Regional Weather Roundup
Issued by NWS

Home | Current Version | Previous Version | Text Only | Print | Product List | Glossary Off
Versions: 1 2 3 4 5 6 7 8 9 10 11 12 13 14 15 16 17 18 19 20 21 22 23 24 25 26 27 28 29 30 31 32 33 34 35 36 37 38 39 40 41 42 43 44 45 46 47 48 49 50

000
ASUS43 KDMX 280008
RWRIA

WEATHER ROUNDUP FOR IOWA
NATIONAL WEATHER SERVICE DES MOINES IA
700 PM CDT FRI MAY 27 2016

NOTE: "FAIR" INDICATES FEW OR NO CLOUDS BELOW 12,000 FEET WITH NO
SIGNIFICANT WEATHER AND/OR OBSTRUCTIONS TO VISIBILITY.

* - THESE STATIONS ARE NOT NWS STATIONS...THUS NOT UNDER NWS
QUALITY CONTROL.  THEY ALSO DO NOT REPORT WEATHER SUCH
AS PRECIPITATION OR FOG.

IAZ001>003-012>014-020>022-031>034-043>046-280100-
   NORTHWEST IOWA

CITY           SKY/WX    TMP DP  RH WIND       PRES   REMARKS
CARROLL *      SUNNY     73  63  68 E5        29.70F
CHEROKEE *     MOSUNNY   74  57  55 CALM      29.71R
DENISON *      SUNNY     75  61  60 SE3       29.68F
LE MARS *      SUNNY     77  57  50 CALM      29.71R
ORANGE CITY *  MOSUNNY   75  55  50 CALM      29.71S
SHELDON *      MOSUNNY   75  55  50 CALM      29.69F
SIOUX CITY     MOSUNNY   79  59  50 E7        29.68F HX  80
6HR MIN TEMP:  71; 6HR MAX TEMP:  80;

SPENCER        SUNNY     73  56  54 NW3       29.71S
6HR MIN TEMP:  70; 6HR MAX TEMP:  78;

STORM LAKE *   MOSUNNY   75  55  50 CALM      29.73R
$$

IAZ055>058-069>071-079>083-090>094-280100-
   SOUTHWEST IOWA

CITY           SKY/WX    TMP DP  RH WIND       PRES   REMARKS
ATLANTIC *     SUNNY     72  64  78 NE3       29.69S
AUDUBON *      MOSUNNY   72  64  78 NE5       29.71S
CLARINDA *       N/A     73  64  73 MISG      29.72F
COUNCIL BLFS * SUNNY     73  61  64 SE10      29.70R
CRESTON *      PTSUNNY   72  63  73 NE9       29.72S
HARLAN  *      SUNNY     73  61  64 E8        29.72F
LAMONI         MOSUNNY   72  65  78 N3        29.72S
6HR MIN TEMP:  72; 6HR MAX TEMP:  77;

RED OAK *      SUNNY     72  64  78 SE8       29.72R
SHENANDOAH *   MOSUNNY   72  66  83 E5G12     29.71S
$$

IAZ047>049-059>061-072>074-084-280100-
   CENTRAL IOWA

CITY           SKY/WX    TMP DP  RH WIND       PRES   REMARKS
AMES           MOSUNNY   74  62  66 E6        29.72F
6HR MIN TEMP:  67; 6HR MAX TEMP:  76;

ANKENY *       SUNNY     73  63  68 CALM      29.72F
BOONE *        SUNNY     73  63  68 CALM      29.72F
CHARITON *     MOSUNNY   75  64  69 N9        29.71F
DES MOINES     CLOUDY    75  61  61 N6        29.71F
6HR MIN TEMP:  69; 6HR MAX TEMP:  77;

GRINNELL*      SUNNY     75  64  69 W7        29.73F
KNOXVILLE *    MOSUNNY   75  63  64 NW6       29.71F
MARSHALLTOWN   SUNNY     74  64  71 NW8       29.72F
6HR MIN TEMP:  69; 6HR MAX TEMP:  76; 6HR PCP: TRACE;

NEWTON *       PTSUNNY   73  66  78 NW8       29.72F
PELLA *        SUNNY     75  63  64 NW8       29.72
PERRY *          N/A     73  64  73 E6        29.71F
$$

IAZ004>006-015-016-023>025-035-036-280100-
   NORTH CENTRAL IOWA

CITY           SKY/WX    TMP DP  RH WIND       PRES   REMARKS
ALGONA *       CLOUDY    75  59  57 E6        29.72R
CLARION *      PTSUNNY   73  63  68 E6        29.74R
ESTHERVILLE    SUNNY     75  57  53 VRB5      29.71S
6HR MIN TEMP:  67; 6HR MAX TEMP:  77;

FORT DODGE *   MOSUNNY   75  59  57 S7        29.73S
MASON CITY     MOSUNNY   72  64  76 E5        29.75R
6HR MIN TEMP:  64; 6HR MAX TEMP:  74; 6HR PCP:  0.01;

FOREST CITY *    N/A     72  61  68 SE3       29.74R
WEBSTER CITY * SUNNY     73  61  64 CALM      29.71F
IOWA FALLS *     N/A     75  61  60 CALM      29.75S
$$

IAZ007>011-017>019-026>030-037>042-050>054-066-280100-
   NORTHEAST IOWA

CITY           SKY/WX    TMP DP  RH WIND       PRES   REMARKS
CEDAR RAPIDS   MOSUNNY   80  69  69 NW12      29.70F HX  83
6HR MIN TEMP:  76; 6HR MAX TEMP:  82; 6HR PCP: TRACE;

CHARLES CITY * SUNNY     72  66  83 VRB3      29.74S
CLINTON *      PTSUNNY   76  68  76 S12       29.76R
DECORAH *      MOSUNNY   72  68  88 CALM      29.73R
DUBUQUE        PTSUNNY   73  67  81 S14       29.74S
6HR MIN TEMP:  71; 6HR MAX TEMP:  76;

MONTICELLO *   PTSUNNY   77  66  69 NW10      29.73R
OELWEIN *      MOSUNNY   73  66  78 W8        29.74R
WATERLOO       SUNNY     74  63  68 W7        29.72S
6HR MIN TEMP:  69; 6HR MAX TEMP:  77; 6HR PCP:  0.10;

$$

IAZ064-065-067-068-078-280100-
   EAST CENTRAL IOWA

CITY           SKY/WX    TMP DP  RH WIND       PRES   REMARKS
DAVENPORT      MOSUNNY   77  67  71 S15       29.75S
6HR MIN TEMP:  72; 6HR MAX TEMP:  78; 6HR PCP: TRACE;

IOWA CITY      SUNNY     78  67  68 S8        29.71F HX  80
6HR MIN TEMP:  74; 6HR MAX TEMP:  81; 6HR PCP:  0.03;

MT. PLEASANT * SUNNY     80  69  67 SE12      29.72S HX  83
MUSCATINE *    MOSUNNY   79  68  69 S12       29.72S HX  81
QUAD CITIES    MOSUNNY   79  67  66 S10       29.74S HX  81
6HR MIN TEMP:  73; 6HR MAX TEMP:  80; 6HR PCP:  0.01;

$$

IAZ062-063-075>077-085>089-095>099-280100-
   SOUTHEAST IOWA

CITY           SKY/WX    TMP DP  RH WIND       PRES   REMARKS
BURLINGTON     SUNNY     77  69  76 S7        29.73S
6HR MIN TEMP:  72; 6HR MAX TEMP:  78;

FAIRFIELD *      N/A    N/A N/A N/A MISG        N/A
FORT MADISON * MOSUNNY   79  68  69 SE8       29.74S HX  81
KEOKUK *       MOSUNNY   77  68  73 SE6       29.72S
OSKALOOSA *      N/A     78  62  57 NW9       29.71F
OTTUMWA        PTSUNNY   75  69  81 NW8       29.70F
6HR MIN TEMP:  72; 6HR MAX TEMP:  82;

WASHINGTON *   SUNNY     79  79 100 S8        29.72S HX  83
$$

ABBREVIATIONS USED IN REMARKS
   TC - TEMPERATURES IN CELSIUS
  WCI - WIND CHILL INDEX
   HX - HEAT INDEX
  VSB - VISIBILITY
$$




USA.gov is the U.S. government's official web portal to all federal, state and local government web resources and services.